Regional Weather Roundup
Issued by NWS

Home | Current Version | Previous Version | Graphics & Text | Print | Product List | Glossary On
Versions: 1 2 3 4 5 6 7 8 9 10 11 12 13 14 15 16 17 18 19 20 21 22 23 24 25 26 27 28 29 30 31 32 33 34 35 36 37 38 39 40 41 42 43 44 45 46 47 48 49 50
000
ASUS43 KIND 281359
RWRIN

WEATHER ROUNDUP FOR INDIANA
NATIONAL WEATHER SERVICE INDIANAPOLIS IN
1000 AM EDT SAT MAR 28 2015

NOTE: "FAIR" INDICATES FEW OR NO CLOUDS BELOW 12,000 FEET WITH NO
SIGNIFICANT WEATHER AND/OR OBSTRUCTIONS TO VISIBILITY.

* - STATION DOES NOT REPORT WEATHER SUCH AS PRECIPITATION OR FOG.

+ - STATION NOT QUALITY CONTROLLED BY THE NATIONAL WEATHER SERVICE.
    USE DATA WITH CAUTION...ESPECIALLY DEWPOINT AND RELATIVE
    HUMIDITY OBSERVATIONS.

INZ001>003-010>013-019-020-281500-
NORTHWEST INDIANA

CITY           SKY/WX    TMP DP  RH WIND       PRES   REMARKS
GARY /AIRPORT/ SUNNY     27   9  46 E7        30.32R WCI  19
KNOX *+          N/A     23  -2  33 E5        30.31R WCI  17

$$

LMZ046-743>745-281500-
SOUTHERN LAKE MICHIGAN

STATION/POSITION TIME  TEMP WIND        PRES
                       AIR  DIR/SP/G
                 (UTC) (F)  (DEG/KT/KT) (MB)
BURNS HARBOR     1300   22   90/  7/ 10 1027.1R
MICHIGAN CITY    1300   19   70/  7/  8   N/A

$$

INZ004-005-014>016-021>024-281500-
NORTH CENTRAL INDIANA

CITY           SKY/WX    TMP DP  RH WIND       PRES   REMARKS
GOSHEN         SUNNY     22   9  57 VRB3      30.30R
SOUTH BEND     SUNNY     22   9  57 VRB5      30.31R WCI  16
WARSAW +       SUNNY     23  10  58 E3        30.30R

$$

INZ006>009-017-018-025>027-281500-
NORTHEAST INDIANA

CITY           SKY/WX    TMP DP  RH WIND       PRES   REMARKS
ANGOLA *+      SUNNY     19   9  63 VRB6      30.27R WCI  11
FORT WAYNE     SUNNY     23   6  48 NE8       30.30R WCI  14

$$

INZ028-029-035-036-043>045-051>053-281500-
WEST CENTRAL INDIANA

CITY           SKY/WX    TMP DP  RH WIND       PRES   REMARKS
CRAWFORDSVL +  SUNNY     22  10  59 N6        30.29R WCI  15
GREENCASTLE +  SUNNY     23  12  63 NE5       30.29R WCI  17
LAFAYETTE      SUNNY     23  12  62 E6        30.31R WCI  16
TERRE HAUTE    SUNNY     26  14  60 N5        30.31R WCI  20

$$

INZ030>032-037>040-046>048-054>057-064-065-281500-
CENTRAL INDIANA

CITY           SKY/WX    TMP DP  RH WIND       PRES   REMARKS
ANDERSON       MOSUNNY   16  14  93 E12       30.27R WCI   3
CP ATTERBURY + SUNNY     27  18  69 NE6       30.29R WCI  20
COLUMBUS       SUNNY     25  12  58 NE6       30.29R WCI  18
FRANKFORT +    SUNNY     24  16  72 N7        30.29R WCI  16
GREENWOOD *+   SUNNY     25  12  58 NE7       30.28R WCI  17
INDIANAPOLIS   MOSUNNY   24  12  60 NE7       30.27R WCI  16
-EAGLE CREEK   SUNNY     24  13  62 NE7       30.27R WCI  16
KOKOMO *+        N/A     23  16  74 E9        30.29R WCI  13
MT COMFORT *+  SUNNY     25   9  50 NE8       30.28R WCI  16
SHELBYVILLE    SUNNY     26  16  65 NE6       30.27R WCI  19

$$

INZ033-034-041-042-049-050-058-059-281500-
EAST CENTRAL INDIANA

CITY           SKY/WX    TMP DP  RH WIND       PRES   REMARKS
MUNCIE         SUNNY     23  13  65 E9        30.27R WCI  13

$$

INZ060-061-067>069-081>083-085>088-281500-
SOUTHWEST INDIANA

CITY           SKY/WX    TMP DP  RH WIND       PRES   REMARKS
EVANSVILLE     SUNNY     29  17  61 NE7       30.31R WCI  22
HUNTINGBURG *+ SUNNY     25  12  58 NE8       30.30R WCI  16

$$

INZ062-063-066-070>080-084-089>092-281500-
SOUTH CENTRAL AND SOUTHEAST INDIANA

CITY           SKY/WX    TMP DP  RH WIND       PRES   REMARKS
BLOOMINGTON    SUNNY     25  15  66 NE6       30.27R WCI  18
SEYMOUR +      SUNNY     27  16  63 N8        30.29R WCI  18

$$



USA.gov is the U.S. government's official web portal to all federal, state and local government web resources and services.